Carolina, PR

4:31 AM AST on February 26, 2017 (GMT -0400)
Luis Munoz Marin International

Weather History for TJSJ - March, 2011

Change the Weather History Date:

Friday, March 25, 2011

  Actual Average Record
Temperature  
Mean Temperature 78 °F 79 °F  
Max Temperature 85 °F 85 °F 92 °F (2003)
Min Temperature 71 °F 73 °F 65 °F (1957)
Degree Days  
Heating Degree Days 0 0  
Month to date heating degree days 0 0  
Since 1 July heating degree days 0 0  
Cooling Degree Days 13 14  
Month to date cooling degree days 306 344  
Year to date cooling degree days 1054 1095  
Growing Degree Days 28 (Base 50)    
Moisture  
Dew Point 70 °F    
Average Humidity 77    
Maximum Humidity 88    
Minimum Humidity 65    
Precipitation  
Precipitation 0.01 in 0.07 in 3.09 in (2012)
Month to date precipitation 1.08 1.52  
Year to date precipitation 5.98 7.67  
Snow  
Snow 0.00 in 0.00 in - ()
Month to date snowfall 0.0 0.0  
Since 1 July snowfall 0.0 0.0  
Snow Depth 0.00 in    
Sea Level Pressure  
Sea Level Pressure 30.00 in    
Wind  
Wind Speed 7 mph (East)    
Max Wind Speed 22 mph    
Max Gust Speed 26 mph    
Visibility 10 miles    
Events Rain    
T = Trace of Precipitation, MM = Missing Value Source: NWS Daily Summary

Daily Weather History Graph

Daily Weather History Graph

Search for Another Location

Airport or City:

Trip Planner

Search our weather history database for the weather conditions in past years. The results will help you decide how hot, cold, wet, or windy it might be!

Date:

Astronomy

Mar. 25, 2011 Rise Set
Actual Time 6:24 AM AST 6:36 PM AST
Civil Twilight 6:02 AM AST 6:57 PM AST
Nautical Twilight 5:37 AM AST 7:23 PM AST
Astronomical Twilight 5:11 AM AST 7:48 PM AST
Moon No Moon Rise 11:12 AM AST (3/25)
Length of Visible Light 12h 55m
Length of Day
12h 11m
Waning Gibbous, 59% of the Moon is Illuminated
Mar 25
Waning Gibbous
Mar 26
Last Quarter
Apr 3
New
Apr 11
First Quarter
Apr 17
Full

Hourly Weather History & Observations

Time (AST) Temp. Heat Index Dew Point Humidity Pressure Visibility Wind Dir Wind Speed Gust Speed Precip Events Conditions
12:56 AM 75.0 °F - 68.0 °F 79% 30.00 in 10.0 mi Calm Calm - N/A   Partly Cloudy
1:56 AM 73.0 °F - 66.9 °F 81% 29.99 in 10.0 mi Calm Calm - N/A   Partly Cloudy
2:56 AM 73.0 °F - 68.0 °F 84% 29.97 in 10.0 mi Calm Calm - N/A   Partly Cloudy
3:56 AM 72.0 °F - 66.9 °F 84% 29.97 in 10.0 mi Calm Calm - N/A   Scattered Clouds
4:56 AM 72.0 °F - 66.9 °F 84% 29.98 in 10.0 mi Calm Calm - N/A   Scattered Clouds
5:56 AM 72.0 °F - 66.9 °F 84% 29.99 in 10.0 mi SSE 3.5 mph - N/A   Scattered Clouds
6:56 AM 73.0 °F - 68.0 °F 84% 30.01 in 10.0 mi Calm Calm - N/A   Scattered Clouds
7:56 AM 75.9 °F - 69.1 °F 79% 30.02 in 10.0 mi Calm Calm - N/A   Scattered Clouds
8:56 AM 79.0 °F - 70.0 °F 74% 30.04 in 10.0 mi East 6.9 mph - N/A   Partly Cloudy
9:56 AM 82.0 °F 85.9 °F 70.0 °F 67% 30.03 in 10.0 mi East 6.9 mph - N/A   Partly Cloudy
10:56 AM 82.0 °F 86.3 °F 71.1 °F 69% 30.02 in 10.0 mi NE 11.5 mph - N/A   Scattered Clouds
11:56 AM 82.0 °F 85.9 °F 70.0 °F 67% 30.01 in 10.0 mi ENE 12.7 mph - N/A   Scattered Clouds
12:56 PM 84.0 °F 89.0 °F 71.1 °F 65% 29.99 in 10.0 mi ENE 19.6 mph - N/A   Scattered Clouds
1:56 PM 84.9 °F 90.7 °F 72.0 °F 65% 29.96 in 10.0 mi ENE 19.6 mph 24.2 mph N/A   Scattered Clouds
2:56 PM 81.0 °F 84.9 °F 71.1 °F 72% 29.96 in 10.0 mi ENE 15.0 mph - N/A   Mostly Cloudy
3:56 PM 78.1 °F - 73.0 °F 84% 29.96 in 9.0 mi East 12.7 mph - 0.01 in Rain Light Rain
4:56 PM 79.0 °F - 73.9 °F 84% 29.96 in 10.0 mi ENE 12.7 mph - 0.00 in   Mostly Cloudy
5:56 PM 78.1 °F - 73.0 °F 84% 29.97 in 10.0 mi East 9.2 mph - N/A   Mostly Cloudy
6:56 PM 77.0 °F - 73.0 °F 88% 29.98 in 10.0 mi East 8.1 mph - N/A   Mostly Cloudy
7:56 PM 78.1 °F - 72.0 °F 81% 30.00 in 10.0 mi East 5.8 mph - N/A   Scattered Clouds
8:56 PM 77.0 °F - 72.0 °F 84% 30.01 in 10.0 mi ESE 5.8 mph - N/A   Scattered Clouds
9:56 PM 78.1 °F - 72.0 °F 81% 30.02 in 10.0 mi SE 4.6 mph - N/A   Scattered Clouds
10:56 PM 78.1 °F - 71.1 °F 79% 30.03 in 10.0 mi Calm Calm - N/A   Scattered Clouds
11:56 PM 77.0 °F - 72.0 °F 84% 30.02 in 10.0 mi East 4.6 mph - N/A   Scattered Clouds